TimeEST,TemperatureF,Dew PointF,Humidity,Sea Level PressureIn,VisibilityMPH,Wind Direction,Wind SpeedMPH,Gust SpeedMPH,PrecipitationIn,Events,Conditions,WindDirDegrees,DateUTC
12:54 AM,30.0,19.0,64,30.32,10.0,SW,5.8,-,N/A,,Partly Cloudy,230,2013-01-04 05:54:00
1:54 AM,30.0,19.0,64,30.32,10.0,SW,6.9,-,N/A,,Overcast,220,2013-01-04 06:54:00
2:54 AM,30.9,19.0,61,30.33,10.0,SW,9.2,-,N/A,,Overcast,230,2013-01-04 07:54:00
3:54 AM,30.9,19.0,61,30.33,10.0,SW,8.1,-,N/A,,Overcast,230,2013-01-04 08:54:00
4:54 AM,30.9,19.0,61,30.32,10.0,WSW,9.2,-,N/A,,Overcast,240,2013-01-04 09:54:00
5:30 AM,30.2,19.4,64,30.30,10.0,WSW,11.5,20.7,N/A,,Overcast,250,2013-01-04 10:30:00
5:54 AM,30.0,19.9,66,30.32,10.0,West,6.9,18.4,N/A,,Overcast,260,2013-01-04 10:54:00
6:54 AM,30.0,19.9,66,30.34,10.0,WSW,9.2,-,N/A,,Overcast,250,2013-01-04 11:54:00
7:54 AM,30.0,19.9,66,30.35,10.0,WSW,6.9,-,N/A,,Overcast,250,2013-01-04 12:54:00
8:54 AM,30.9,19.9,64,30.37,10.0,WSW,12.7,18.4,N/A,,Overcast,250,2013-01-04 13:54:00
9:54 AM,30.9,19.0,61,30.38,10.0,WSW,11.5,18.4,N/A,,Overcast,240,2013-01-04 14:54:00
10:54 AM,30.9,19.9,64,30.38,10.0,WSW,10.4,-,N/A,,Overcast,250,2013-01-04 15:54:00
11:54 AM,30.9,19.9,64,30.36,10.0,WSW,10.4,-,N/A,,Overcast,240,2013-01-04 16:54:00
12:54 PM,32.0,21.0,64,30.35,10.0,WSW,10.4,18.4,N/A,,Overcast,250,2013-01-04 17:54:00
1:54 PM,32.0,19.9,61,30.33,10.0,WSW,8.1,17.3,N/A,,Overcast,240,2013-01-04 18:54:00
2:31 PM,33.8,21.2,60,30.27,10.0,SSW,8.1,-,N/A,,Scattered Clouds,210,2013-01-04 19:31:00
2:54 PM,34.0,21.0,59,30.31,10.0,SW,10.4,-,N/A,,Scattered Clouds,230,2013-01-04 19:54:00
3:54 PM,35.1,21.0,57,30.31,10.0,SW,11.5,-,N/A,,Mostly Cloudy,230,2013-01-04 20:54:00
4:54 PM,35.1,21.9,59,30.32,10.0,WSW,4.6,-,N/A,,Mostly Cloudy,250,2013-01-04 21:54:00
5:54 PM,35.1,21.0,57,30.33,10.0,West,6.9,-,N/A,,Scattered Clouds,260,2013-01-04 22:54:00
6:54 PM,35.1,21.0,57,30.34,10.0,WSW,11.5,20.7,N/A,,Scattered Clouds,240,2013-01-04 23:54:00
7:54 PM,35.1,21.0,57,30.37,10.0,WSW,10.4,-,N/A,,Scattered Clouds,240,2013-01-05 00:54:00
8:54 PM,33.1,21.0,61,30.37,10.0,SW,8.1,-,N/A,,Scattered Clouds,230,2013-01-05 01:54:00
9:54 PM,33.1,21.0,61,30.37,10.0,SW,10.4,-,N/A,,Partly Cloudy,230,2013-01-05 02:54:00
10:54 PM,32.0,21.0,64,30.38,10.0,SW,6.9,-,N/A,,Clear,230,2013-01-05 03:54:00
11:54 PM,30.9,21.0,67,30.38,10.0,SW,8.1,-,N/A,,Clear,220,2013-01-05 04:54:00